Regional Weather Roundup
Issued by NWS Upton, NY

Current Version | Previous Version | Text Only | Print | Product List | Glossary On
Versions: 1 2 3 4 5 6 7 8 9 10 11 12 13 14 15 16 17 18 19 20 21 22 23 24 25 26 27 28 29 30 31 32 33 34 35 36 37 38 39 40 41 42 43 44 45 46 47 48 49 50
000
ASUS41 KOKX 261005
RWROKX

REGIONAL WEATHER ROUNDUP
NATIONAL WEATHER SERVICE NEW YORK NY
600 AM EDT SAT JUL 26 2014

NOTE: "FAIR" INDICATES FEW OR NO CLOUDS BELOW 12,000 FEET WITH NO
SIGNIFICANT WEATHER AND/OR OBSTRUCTIONS TO VISIBILITY.

NYZ071-072-176-178-NJZ106-104-261100-
NEW YORK CITY METRO AREA


CITY           SKY/WX    TMP DP  RH WIND       PRES   REMARKS
CENTRAL PARK   MOCLDY    70  57  63 W6        30.03R
LAGUARDIA APRT NOT AVBL
KENNEDY INTL   MOCLDY    71  60  68 W10       30.01R
NEWARK/LIBERTY MOCLDY    66  60  81 SW3       30.00R
BRNX BOT. GARD   N/A     70  57  64 W5        30.02S
TETERBORO      MOCLDY    69  60  73 S3        29.99R
$$

NYZ177-179-078>081-261100-
LONG ISLAND NEW YORK

CITY           SKY/WX    TMP DP  RH WIND       PRES   REMARKS
FARMINGDALE    MOCLDY    67  61  81 SW5       30.01R
ISLIP          MOCLDY    68  61  78 SW5       29.99R
SHIRLEY        MOCLDY    69  64  84 SW3       30.01R
WESTHAMPTON    MOCLDY    69  67  93 SW5       30.02R
MONTAUK POINT    N/A     69  67  93 SW5       30.02R
$$

NYZ052-065-067-261100-
HUDSON VALLEY

CITY           SKY/WX    TMP DP  RH WIND       PRES   REMARKS
WHITE PLAINS   MOCLDY    65  62  90 W3        30.00R
NEWBURGH       PTCLDY    61  59  94 CALM      30.01R
MONTGOMERY     CLEAR     58  56  93 CALM      30.00R
POUGHKEEPSIE   PTCLDY    60  58  92 CALM      29.98R
ALBANY         MOCLDY    62  59  90 CALM      29.96R
$$

NJZ001-105-106-008-010-013-015-019>022-104-261100-
NEW JERSEY

CITY           SKY/WX    TMP DP  RH WIND       PRES   REMARKS
NEWARK/LIBERTY MOCLDY    66  60  81 SW3       30.00R
TETERBORO      MOCLDY    69  60  73 S3        29.99R
CALDWELL       MOCLDY    65  59  81 CALM      30.01R
MORRISTOWN     MOCLDY    63  59  88 CALM      30.01R
SOMERVILLE     NOT AVBL
LINDEN         FAIR      68  60  75 W3        30.03R
SUSSEX         MOCLDY    59  55  87 CALM      30.01R
ANDOVER          N/A     59  58  96 CALM      30.02R
TRENTON        CLOUDY    64  58  80 CALM      30.01R
MILLVILLE      CLOUDY    61  59  93 CALM      30.02R
ATLANTIC CITY  CLOUDY    65  61  87 CALM      30.02R
WRIGHTSTOWN    CLOUDY    64  62  95 S2        30.00S
TOMS RIVER     CLOUDY    61  59  94 CALM      30.02S
BELMAR         CLOUDY    64  61  88 W5        30.02R
$$

PAZ047>061-062-071-261100-
EASTERN PENNSYLVANIA

CITY           SKY/WX    TMP DP  RH WIND       PRES   REMARKS
PHILADELPHIA   CLOUDY    69  61  75 S5        30.01S
ALLENTOWN      MOCLDY    60  57  89 CALM      30.01R
SCRANTON       MOCLDY    57  50  77 CALM      30.01R
$$

CTZ002-004>006-009-010-012-RIZ004-006-007-MAZ004-011-015-261100-
SOUTHERN NEW ENGLAND
 IN CT

CITY           SKY/WX    TMP DP  RH WIND       PRES   REMARKS
BRADLEY INTL   MOCLDY    64  59  83 S7        29.98R
HARTFORD       MOCLDY    65  61  87 S3        29.99R
DANBURY        PTCLDY    59  56  89 CALM      30.02R
WTRBRY/OXFORD  PTCLDY    59  54  82 CALM      30.03R
BRIDGEPORT     MOCLDY    69  64  84 W3        30.00R
MERIDEN        MOCLDY    60  58  92 CALM      30.00R
NEW HAVEN      MOCLDY    72  65  78 CALM      30.00R
CHESTER        FAIR      66  66 100 SW5       30.01S
GROTON         PTCLDY    68  65  90 W6        29.99R
WILLIMANTIC    MOCLDY    58  55  90 CALM      30.01R

 IN RI

CITY           SKY/WX    TMP DP  RH WIND       PRES   REMARKS
PROVIDENCE     MOCLDY    64  60  87 W7        30.00R
BLOCK ISLAND   CLEAR     66  63  88 SW7       30.01R
WESTERLY       PTCLDY    61  58  90 CALM      30.01R

 IN MA

CITY           SKY/WX    TMP DP  RH WIND       PRES   REMARKS
BOSTON         PTCLDY    64  58  80 SW7       29.98R
WORCESTER      PTCLDY    61  57  87 W7        30.00R
WESTFIELD      PTCLDY    59  57  93 S3        29.98R
PROVINCETOWN   PTCLDY    64  63  94 SW8       29.99R
NANTUCKET      PTCLDY    63  61  93 SW6       30.01R
$$

ANZ330-335-338-340-345-350-353-355-261100-
COASTAL MARINE OBSERVATIONS


STATION/POSITION TIME  SKY/WX   TEMP    WIND        PRES    VSBY  WAVE
                                AIR SEA DIR/SP/G                  HT/PER
                 (UTC)          (F)     (DEG/KT/KT) (MB)    (MI)  (FT/S)
NY HARB ENTRANCE NOT AVBL
4S FIRE IS       NOT AVBL
23SW MTP         1000            71 71              1015.6          3/ 8
HUDSON CANYON    1000            72 74  260/  8/ 10 1016.4          2/ 7
EXECUTION ROCKS  1000            71 71  220/  8/  8   N/A
WESTERN LI SOUND 1000            71     210/  8/ 10   N/A           0
CENTRAL LI SOUND 0900            70 72  220/ 12/ 14   N/A           1/ 3
EASTERN LI SOUND 0900            69 67  240/  8/ 10   N/A
ROBBINS REEF     1000            69     250/ 12/ 14   N/A
$$


>>>>>>>>>>>>>>>>>>>>>>>>>>>> KEY <<<<<<<<<<<<<<<<<<<<<<<<<<<
>                                                          <
>     SKY/WX - SKY CONDITION/PRESENT WEATHER               <
>     TMP    - TEMPERATURE IN FAHRENHEIT                   <
>     DP     - DEWPOINT IN FAHRENHEIT                      <
>     RH     - RELATIVE HUMIDITY IN PERCENT                <
>     WIND   - DIRECTION AND SPEED IN MPH                  <
>     PRES   - MEAN SEA LEVEL PRESSURE IN INCHES OF HG     <
>     WCI    - WIND CHILL INDEX                            <
>     VSB    - VISIBILITY IN MILES                         <
>     HX     - HEAT INDEX                                  <
>     TC     - TEMPERATURE IN CELSIUS                      <
>     VRB    - VARIABLE WIND DIRECTION                     <
>                                                          <
>>>>>>>>>>>>>>>>>>>>>>>>>>>> KEY <<<<<<<<<<<<<<<<<<<<<<<<<<<





USA.gov is the U.S. government's official web portal to all federal, state and local government web resources and services.